This demonstration page uses our WeatherBlox Daily Observations layout. Learn more.

Left ArrowRight Arrow

44.31136, -96.79839

Hourly Observations for August 23, 2018

Temp ( °F °C ) Dew Point ( °F °C ) Humidity (%) Winds ( mph kmh ) Pressure ( in mb ) Visibility ( mi km ) Precip ( " mm )
12:56 am 00:56 Clear 60 15.6 52 11.1 75 75 S 10 17 30.10 1019 10 16 0.00 0.00
1:56 am 01:56 Clear 59 15 52 11.1 78 78 S 10 17 30.09 1019 10 16 0.00 0.00
2:56 am 02:56 Clear 57 14 N/A N/A S 10 17 30.07 1018 10 16 0.00 0.00
3:56 am 03:56 Clear 56 13.3 52 11.1 87 87 SSE 8 13 30.06 1018 10 16 0.00 0.00
4:56 am 04:56 Mostly Cloudy 55 12.8 52 11.1 90 90 SSE 9 15 30.04 1017 10 16 0.00 0.00
5:56 am 05:56 Cloudy 57 13.9 53 11.7 87 87 SSE 12 19 30.01 1016 10 16 0.00 0.00
6:56 am 06:56 Cloudy 59 15 55 12.8 87 87 S 14 22 29.98 1015 10 16 0.00 0.00
7:56 am 07:56 Cloudy 60 15.6 56 13.3 86 86 SSE 14 22 29.98 1015 10 16 0.00 0.00
8:54 am 08:54 Mostly Cloudy 63 17 57 14 83 83 S 15 24 29.94 1014 10 16 0.00 0.00
8:56 am 08:56 Mostly Cloudy 62 16.7 58 14.4 86 86 S 13 20 29.98 1015 10 16 0.00 0.00
9:56 am 09:56 Cloudy 65 18.3 59 15 81 81 S 18 30 29.96 1015 10 16 0.00 0.00
10:30 am 10:30 Partly Cloudy 66 19 61 16 83 83 S 17 28 29.85 1011 10 16 0.00 0.00
10:56 am 10:56 Mostly Cloudy 69 20.6 62 16.7 78 78 S 18 30 29.94 1014 10 16 0.00 0.00
11:56 am 11:56 Mostly Cloudy 72 22.2 64 17.8 76 76 S 18 30 29.91 1013 10 16 0.00 0.00
12:56 pm 12:56 Cloudy 73 22.8 65 18.3 76 76 S 20 31 29.88 1012 9 14 0.00 0.00
1:56 pm 13:56 Cloudy 72 22.2 65 18.3 79 79 S 16 26 29.88 1012 10 16 0.00 0.00
2:56 pm 14:56 Cloudy 71 21.7 65 18.3 81 81 S 21 33 29.87 1012 10 16 0.00 0.00
3:39 pm 15:39 Cloudy 70 21 64 18 83 83 S 18 30 29.77 1008 9 14 0.00 0.00
3:56 pm 15:56 Cloudy 69 20.6 65 18.3 87 87 S 16 26 29.85 1011 8 13 0.00 0.00
5:42 pm 17:42 Cloudy with Mist and Fog 68 20 64 18 88 88 S 13 20 29.74 1007 6 10 0.00 0.00
5:56 pm 17:56 Cloudy with Mist and Fog 68 20 65 18.3 90 90 S 13 20 29.83 1010 6 10 0.00 0.00
6:56 pm 18:56 Cloudy with Mist and Fog 67 19.4 65 18.3 93 93 SSE 13 20 29.80 1009 2 3 0.00 0.00
7:07 pm 19:07 Cloudy with Light Rain 66 19 66 19 100 100 SSE 14 22 29.71 1006 2 2 0.00 0.03
7:17 pm 19:17 Cloudy with Light Rain 66 19 64 18 94 94 SSE 16 26 29.71 1006 2 3 0.00 0.03
7:56 pm 19:56 Cloudy with Mist and Fog 67 19.4 66 18.9 97 97 SSE 15 24 29.78 1009 3 4 0.00 0.03
8:22 pm 20:22 Cloudy with Light Rain 66 19 66 19 100 100 SSE 14 22 29.71 1006 2 2 0.00 0.03
8:40 pm 20:40 Cloudy with Light Rain 66 19 66 19 100 100 SSE 16 26 29.71 1006 3 5 0.00 0.03
8:56 pm 20:56 Cloudy with Light Rain 67 19.4 66 18.9 97 97 S 14 22 29.80 1009 3 4 0.00 0.03
9:56 pm 21:56 Cloudy with Light Rain 67 19.4 66 18.9 97 97 SSE 17 28 29.77 1008 3 4 0.01 0.25
10:04 pm 22:04 Cloudy with Light Rain 66 19 66 19 100 100 SSE 18 30 29.71 1006 3 5 0.00 0.03
10:56 pm 22:56 Cloudy with Mist and Fog 67 19.4 66 18.9 97 97 S 15 24 29.77 1008 6 10 0.00 0.03
11:41 pm 23:41 Cloudy 66 19 66 19 100 100 S 14 22 29.68 1005 7 11 0.00 0.00
11:56 pm 23:56 Cloudy with Mist and Fog 67 19.4 66 18.9 97 97 S 13 20 29.75 1008 6 10 0.00 0.00

Powered by AerisWeather